Regional Weather Roundup
Issued by NWS

Home | Current Version | Previous Version | Graphics & Text | Print | Product List | Glossary On
Versions: 1 2 3 4 5 6 7 8 9 10 11 12 13 14 15 16 17 18 19 20 21 22 23 24 25 26 27 28 29 30 31 32 33 34 35 36 37 38 39 40 41 42 43 44 45 46 47 48 49 50
000
ASUS43 KIND 271759
RWRIN

WEATHER ROUNDUP FOR INDIANA
NATIONAL WEATHER SERVICE INDIANAPOLIS IN
200 PM EDT SUN JUL 27 2014

NOTE: "FAIR" INDICATES FEW OR NO CLOUDS BELOW 12,000 FEET WITH NO
SIGNIFICANT WEATHER AND/OR OBSTRUCTIONS TO VISIBILITY.

* - STATION DOES NOT REPORT WEATHER SUCH AS PRECIPITATION OR FOG.

+ - STATION NOT QUALITY CONTROLLED BY THE NATIONAL WEATHER SERVICE.
    USE DATA WITH CAUTION...ESPECIALLY DEWPOINT AND RELATIVE
    HUMIDITY OBSERVATIONS.

INZ001>003-010>013-019-020-271900-
NORTHWEST INDIANA

CITY           SKY/WX    TMP DP  RH WIND       PRES   REMARKS
GARY /AIRPORT/ PTSUNNY   88  57  35 W14G28    29.71F
VALPARAISO     PTSUNNY   84  66  54 W15       29.73F
6HR MIN TEMP:  72; 6HR MAX TEMP:  86;


$$

LMZ046-743>745-271900-
SOUTHERN LAKE MICHIGAN

STATION/POSITION TIME  TEMP WIND        PRES
                       AIR  DIR/SP/G
                 (UTC) (F)  (DEG/KT/KT) (MB)
BURNS HARBOR     1700   77  290/  4/  6 1007.5S
MICHIGAN CITY    1700   74  220/  6/  7   N/A

$$

INZ004-005-014>016-021>024-271900-
NORTH CENTRAL INDIANA

CITY           SKY/WX    TMP DP  RH WIND       PRES   REMARKS
GOSHEN         MOSUNNY   86  68  54 W13G20    29.71F
6HR MIN TEMP:  74; 6HR MAX TEMP:  86;

PERU/GRISSOM   PTSUNNY   77  77 100 W9        29.76F
SOUTH BEND     MOSUNNY   86  66  51 W13       29.72F
6HR MIN TEMP:  71; 6HR MAX TEMP:  86;


$$

INZ006>009-017-018-025>027-271900-
NORTHEAST INDIANA

CITY           SKY/WX    TMP DP  RH WIND       PRES   REMARKS
ANGOLA *+      PTSUNNY   84  68  58 SW10      29.72F
FORT WAYNE     PTSUNNY   77  71  82 W13       29.74F
6HR MIN TEMP:  70; 6HR MAX TEMP:  77; 6HR PCP:  0.01;


$$

INZ028-029-035-036-043>045-051>053-271900-
WEST CENTRAL INDIANA

CITY           SKY/WX    TMP DP  RH WIND       PRES   REMARKS
GREENCASTLE +  PTSUNNY   81  72  74 W9        29.80F
LAFAYETTE      MOSUNNY   82  71  69 W10       29.76F
6HR MIN TEMP:  67; 6HR MAX TEMP:  83; 6HR PCP: TRACE;

TERRE HAUTE    MOSUNNY   83  73  72 NW16      29.80S
6HR MIN TEMP:  71; 6HR MAX TEMP:  84;


$$

INZ030>032-037>040-046>048-054>057-064-065-271900-
CENTRAL INDIANA

CITY           SKY/WX    TMP DP  RH WIND       PRES   REMARKS
INDIANAPOLIS   CLOUDY    77  73  87 SW6       29.77F
6HR MIN TEMP:  69; 6HR MAX TEMP:  77;

-EAGLE CREEK   CLOUDY    79  72  79 SW8       29.76F
6HR MIN TEMP:  70; 6HR MAX TEMP:  80;

KOKOMO *+      PTSUNNY   75  73  94 W13       29.77F
MT COMFORT *+  CLOUDY    77 N/A N/A SW10      29.79S
SHELBYVILLE    CLOUDY    74  71  91 SW9       29.79F
6HR MIN TEMP:  72; 6HR MAX TEMP:  77; 6HR PCP:  0.13;


$$

INZ033-034-041-042-049-050-058-059-271900-
EAST CENTRAL INDIANA

CITY           SKY/WX    TMP DP  RH WIND       PRES   REMARKS
MUNCIE         CLOUDY    77  70  79 SW13G21   29.75F
6HR MIN TEMP:  70; 6HR MAX TEMP:  77;


$$

INZ060-061-067>069-081>083-085>088-271900-
SOUTHWEST INDIANA

CITY           SKY/WX    TMP DP  RH WIND       PRES   REMARKS
EVANSVILLE     PTSUNNY   87  75  67 W14       29.83S HX  96
6HR MIN TEMP:  78; 6HR MAX TEMP:  87;


$$

INZ062-063-066-070>080-084-089>092-271900-
SOUTH CENTRAL AND SOUTHEAST INDIANA

CITY           SKY/WX    TMP DP  RH WIND       PRES   REMARKS
BLOOMINGTON    PTSUNNY   82  75  79 W9        29.79F
6HR MIN TEMP:  71; 6HR MAX TEMP:  83; 6HR PCP:  0.01;

SEYMOUR +      CLOUDY    73  64  73 S8        29.79F

$$




USA.gov is the U.S. government's official web portal to all federal, state and local government web resources and services.